Disclaimer

Please do not use the information listed here in-flight or in-navigation, as they are not provided to us by the airports but are provided by volunteers, so they might be outdated.

Search


Regions


Airport information page

Radio informations:
Tower (TWR) - 118.1 MHz
Ground (GND) - 121.8 MHz
Clearance delivery - 122.075 MHz
OKINAWA APP/DEP - SEEREMAR MHz

Airport informations:
Latitude: 26° 11' 44.93" N
Longitude: 127° 38' 45.13" E
Elevation: 12 feet - 4 meters
Operating hours: N/A
Operating agency: Civil government, landing fees and diplomatic clearance may be required
Timezone: UTC+9
Fuel: JP-4, Wide cut turbine fuel MIL Spec T-5624

Runway information:
18/36 - 9840 x 150 feet< - >2999 x 46 meters

Recent METARs:
ROAH 171300Z 36017KT 9999 FEW035 SCT050 16/06 Q1024 RMK 1CU035 4SC050 A3024
ROAH 171400Z 36019KT 9999 FEW035 15/06 Q1024 RMK 2CU035 A3025
ROAH 171400Z 36019KT 9999 FEW035 15/06 Q1024 RMK 2CU035 A3025

Airport on the map: